Timeline UpdatesTrip UpdatesNews PostsPvt PostsTravel TipsAdmin PostsConv PostsFollowed PostsChat RequestsBlog PostsPNR Posts

Disclaimer
Search
 
 
Thu Sep 18, 2014 23:12:43 ISTHomeTrainsΣChainsAtlasPNRForumGalleryNewsFAQTripsMembersLoginFeedback
No Recent News for this Train
Other Trains in the News **new
Latest...
Train leaving Lalgarh on 29/8/14 will be diverted to run via Siwan-Thawe-Kaptanganj-Gorakhpur #1198258 , Renumbered as 15910 wef 29/8/14 #1126088
Tue Aug 26, 2014 (10:21PM)
⇐ Return Journey: Train# 15909

15610⇒15910/Avadh Assam Express

Time-Table HAS CHANGED.
Sep 01 (11:38PM)
Change Departure Station:
Change Arrival Station:
Post a Train Travel TipPost a Train Travel Tip **new
Post a Comment/Question/Picture/VideoPost a Comment/Question/Picture/Video
Pantry/Catering
✓ Pantry Car Avbl
✓ Catering Avbl
Loco/Rake Reversals
BTI/Bathinda Junction (6);
RSA - Rake Sharing
No Rake Sharing
Rake/Coach Composition
Loco-HCPV-HCPV-SLR-GS-GS-A1-B1-Army 3A-B2-PC-S1-S2-S3-S4-S5-S6-S7-S8-S9-S10-GS-GS-SLR.
Loco
SGUJ WDP#4B or 4D
News    PNR    Forum    Time-Table    Availability    Fare Chart    Map    Arr/Dep History    Trips    Gallery    ΣChains    X/O    Timeline    
Travel Time: 20h 8m    30 halts    Distance: 1037 km    Avg Speed: 51 km/hr
Type: Mail/Express
Zone: NFR/Northeast Frontier
Departs @ 19:45
Platform# 1
SMTWTFS
Lalgarh Junction/LGH 
Arrives @ 15:53 +1 night
Platform# ???
SMTWTFS
Balamau Junction/BLM 

30 halts. 150 intermediate Stations between Lalgarh Junction and Balamau Junction

Show ALL intermediate Stations  Show Old Time-Table

#CodeStation NameX/OArrivesAvgDepartsAvgHaltPFDay#KmSpeedElevZoneAddress
1LGHLalgarh Junction»  -19:45-110.077225mNWRBikaner, Rajasthan
2LKSLunkaransar  20:43 20:44-20:45-2 1m1176.158194mNWRLunkaransar, Rajasthan
3MHJMahajan  21:18 21:26-21:20 21:27-2 1m--1115.465199mNWRMahajan, Rajasthan
4SOGSuratgarh Junction (5)  22:25-22:30-5m--1178.162170mNWRSuratgarh, Rajasthan
5PGKPili BanganX  22:53 22:54-22:55-2 1m--1203.062176mNWRPilibanga, Rajasthan
6HMHHanumangarh Junction (4)X  23:20-23:25-5m--1228.771184mNWRHanumangarh, Rajasthan
7SGRASangaria  23:46 23:47-23:48-2 1m--1254.662193mNWRSangariya, Rajasthan
8MBYMandi Dabwali  00:16 00:17-00:18-2 1m--2284.830198mNWRMandi Dabwali, Haryana
9BTIBathinda Junction (6)01:30-02:00-30m42320.376208mNRBathinda, Punjab
10MAURMaur02:27 02:28-02:29 02:30-2m--2355.970220mNRMaur Mandi, Punjab
11MSZMansa  02:46-02:48-2m--2374.669222mNRMansa, Punjab
12BLZBudhlada03:04 03:02-03:05 03:04-1 2m--2390.777223mNRBudhlada, Punjab
13BRZBareta03:12 03:16-03:14 03:18-2m--2406.166223mNRBareta, Punjab
14JHLJakhal JunctionX  03:18 03:31-03:20 03:33-2m--2420.356225mNRJakhal, Haryana
15TUNTohana (2) new halt!!  03:46-03:48-2m--2432.569232mNRTohana, Haryana
16NRWNarwana Junction (4)  03:58 04:10-04:00 04:12-2m--2458.078235mNRWay to Narwana, Haryana
17JINDJind Junction (3)  04:32 04:38-04:35 04:40-3 2m--2491.971222mNR126102., Haryana
18ROKRohtak Junction (3)  05:25 05:28-05:28 05:30-3 2m--2549.078220mNRRohtak, Haryana
19BGZBahadurgarhX  05:58 06:01-06:00 06:03-2m--2589.243220mNRBahadurgarh, Haryana
20SSBShakur BastiX  06:33 06:31-06:35 06:33-2m--2609.223216mNRPitampura, Delhi NCT
21DKZDelhi KishanGanj (2)  06:51-06:53-2m--2616.28220mNRSarai Rohilla, Delhi NCT
22DLIOld Delhi Junction (16)XO  07:15-07:45-30m162619.023219mNRNear Chandni Chowk Metro Station, Delhi NCT
23GZBGhaziabad Junction (6)X  08:40 08:38-08:45 08:43-5m12639.151217mNRGhaziabad, Uttar Pradesh
24PKWPilkhua (3)X  09:10 09:13-09:12 09:15-2m12664.751218mNRPilkhuwa, Uttar Pradesh
25HPUHapur Junction (4)X  09:28-09:30-2m12675.876214mNRHapur Jn., Uttar Pradesh
26AMROAmroha (3)X  10:25 10:28-10:27 10:30-2m12749.241217mNRAmroha, Uttar Pradesh
27MBMoradabad Junction (7)X  11:10 11:15-11:20 11:25-10m--2779.855201mNRMoradabad, Uttar Pradesh
28RMURampur Junction (3)X  11:51 11:55-11:53 12:00-2 5m--2807.163190mNRRampur, Uttar Pradesh
29BEBareilly Junction (4)  13:00-13:05-5m12870.159174mNRBareilly, Uttar Pradesh
30SPNShahjahanpur Junction (3)  14:18 14:17-14:23 14:22-5m--2940.665156mNRShahjahanpur, Uttar Pradesh
31HRIHardoi (5)  15:10 15:20-15:12 15:25-2 5m321003.671146mNRHardoi, Uttar Pradesh
32BLMBalamau Junction (4)•X  15:43 15:53-15:45 15:55-2m--21036.638139mNRBalamau, Uttar Pradesh
33LKOLucknow Charbagh NR (9)X  17:45-18:10-25m121105.543123mNR226004, Uttar Pradesh
34BBKBarabanki Junction (4)X  18:50-18:52-2m321134.060122mNRPin-225001, Uttar Pradesh
35JLDJarwal Road (2)X  19:32 19:35-19:34 19:37-2m221177.248112mNERBehraich, Uttar Pradesh
36GDGonda Junction (3)X  20:20 20:35-20:35 20:50-15m221223.384110mNERGonda 271001, Uttar Pradesh
37MURMankapur Junction (5)X  20:58 21:10-21:00 21:12-2m221251.276104mNERDistrict Gonda, Uttar Pradesh
38BSTBasti (4)X  21:45 22:00-21:50 22:05-5m221311.77790mNERBasti 272001, Uttar Pradesh
39KLDKhalilabad (3)X  22:12 22:28-22:14 22:30-2m221341.33186mNERKhalilabad- 272175, Uttar Pradesh
40GKPGorakhpur Junction (10)X  23:30 23:35-23:50-20 15m121375.25984mNERGorakhpur 273001, Uttar Pradesh
41DEOSDeoria Sadar (3) new halt!!  00:40-00:45-5m--31424.36279mNERDeoria- 274001, Uttar Pradesh
42BTTBhatni Junction (5) new halt!!X  01:05-01:10-5m--31445.18673mNERDeoria, Uttar Pradesh
43BHTRBhatpar Rani (2) new halt!!  01:19-01:21-2m--31458.04073mNERDeoria, Uttar Pradesh
44SVSiwan Junction (4)X  02:15-02:20-5m--31493.87170mNERSiwan, Bihar
45EKMAEkma (3)O  02:46 02:48-02:48 02:50-2m--31527.12664mNERSaran, Bihar
46CPRChhapra Junction (6)X  03:55-04:05-10m--31555.05958mNERDistt: Saran, Bihar
47SEESonpur Junction (4)  05:00-05:10-10m--31609.13356mECRSaran, Bihar
48HJPHajipur Junction (3)X  05:23 05:20-05:25 05:28-2 8m331614.66255mECR06224-272230, Bihar
49MFPMuzaffarpur Junction (6)  06:35 06:20-06:45 06:25-10 5m131668.45757mECRMuzaffarpur, Bihar
50SPJSamastipur Junction (9)O07:30 07:20-07:55 07:45-25m--31720.56355mECRSamastipur, Bihar
51DSSDalsingh Sarai (2)X  08:16 08:07-08:18 08:09-2m231743.736 ECR06278-221238, Bihar
52BJUBarauni Junction (9)XO  08:55-09:05-10m431771.14749mECRBegusarai, Bihar
53BGSBegusarai (3)X  09:26 09:22-09:28 09:27-2 5m--31784.55846mECRBegusarai, Bihar
54KGGKhagaria Junction (3)XO  10:17 10:08-10:19 10:13-2 5m--31824.45343mECRKhagaria, Bihar
55MNEMansi Junction (4)X  10:30 10:23-10:32 10:25-2m--31833.24743mECRMansi, Bihar
56THBThana Bihpur Junction (3)  11:28 11:19-11:30 11:21-2m--31875.26039mECRThana Bihpur, Bihar
57NNANaugachia (3)X  11:51 11:37-11:53 12:01-2 24m--31891.13737mECRBhagalpur, Bihar
58KIRKatihar Junction (7)  13:25 13:35-13:45 13:50-20 15m631948.95735mNFRKatihar 854105, Bihar
59AZRAzamnagar Road (3)  14:31 14:35-14:33 14:37-2m--31991.75734mNFRAzamnagar, Bihar
60BOEBarsoi Junction (3)  14:46 14:51-14:48 14:53-2m--32005.07637mNFRdist- katihar, Bihar
61DLKDalkhola (3)X  15:11 15:16-15:13 15:18-2m--32034.16344mNFRDalkola, West Bengal
62KNEKishanGanj (3)X  15:47 15:45-15:52 15:50-5m--32062.67652mNFRKishanganj, Bihar
63AUBAluabari Road (2)X  16:22 16:14-16:24 16:16-2m--32093.2340mNFRDist - uttar Dinajpur, West Bengal
64NJPNew Jalpaiguri Junction (8)XO  17:55-18:10-15m132149.942114mNFRCity-Siliguri . Dist-Jalpaiguri, West Bengal
65JPEJalpaiguri Road (2)  18:58-19:00-2m132183.46489mNFRdist - Jalpaiguri 735102, West Bengal
66DQGDhupguri (2)X  19:30-19:35-5m--32215.25675mNFRDist - Jalpaiguri, West Bengal
67NCBNew Cooch Behar Junction (5)X  20:40-20:45-5m--32275.44547mNFRDist : Cooch Behar-736101, West Bengal
68NOQNew Alipurduar (2)  21:10-21:15-5m--32294.18348mNFRDist - Alipurduar - 736121, West Bengal
69FKMFakiragram Junction (4)O  22:05-22:07-2m332363.05444mNFR03661-283454, Assam
70KOJKokrajhar (3)X  22:18-22:20-2m232372.92846mNFR03661-270618, Assam
71NBQNew Bongaigaon Junction (4)X  23:20-23:30-10m--32400.87658mNFR783381., Assam
72BPRDBarpeta Road  00:18 00:05-00:20 00:10-2 5m--42444.96049mNFRHowli, Assam
73RNYRangiya Junction (5)O  01:15-01:25-10m--42509.74158mNFRRangia, Assam
74KYQKamakhya Junction (4)  02:28 02:25-02:30-2 5m--42550.41455mNFRDist - KAMRUP, Assam
75GHYGuwahati (7)X  03:00-03:20-20m--42557.45560mNFRGuwahati, Assam
76JIDJagi Road (2)X  04:28 04:22-04:30 04:24-2m--42614.45862mNFRJagiroad, Assam
77CPKChaparmukh Junction (3)X  04:57 04:59-04:59 05:01-2m--42648.46165mNFRChaparmukh. Dist. Nagaon. Changing point for HBN/SHTT, Assam
78HJIHojai (2)  05:44 05:45-05:46 05:47-2m--42692.93778mNFRHojai Rd. Ph:- 03674-252136., Assam
79LMGLumding Junction (5)X  07:05 07:00-07:10 07:05-5m--42738.131142mNFRLumding, Assam
80DPUDiphu (2)X  08:10 08:07-08:12 08:09-2m--42770.244180mNFRDiphu, Assam
81DMVDimapur (3)  09:05 09:00-09:10 09:05-5m--42807.537153mNFRDimapur, Nagaland
82FKGFurkating Junction (2)  10:55 11:00-10:57 11:02-2m--42877.769 NFRK B Rd, Assam
83MXNMariani Junction (4)  11:35-11:45-10m--42915.774117mNFRDist. Jorhat Pin-785634, Assam
84SLGRSimaluguri Junction (3)  12:29-12:31-2m--42969.94199mNFRSimaluguri, Assam
85NTSKNew Tinsukia Junction (3)  15:00----43072.4-124mNFRDist: Tinsukia, Assam
Scroll to Top
Scroll to Bottom